QFA545 YBCS-YBTL

Flight info

Callsign QFA545
Flight time N/A
Altitude 21000
Route CS V264 IGIKI/N0387F190 V153 TL
Aircraft A320/M-SDE3FGHIRWY/LB1

Departure

Time 2026-04-27 10:31
Airport Cairns International Airport (YBCS)

Arrival

Time N/A
Airport Townsville Airport / RAAF Base Townsville (YBTL)
Time Latitude Longitude Altitude Speed Heading
2026-04-27 09:59 -16.87544 145.75184 15 ft 0 kts 65°
2026-04-27 10:16 -16.87547 145.75179 14 ft 3 kts 65°
2026-04-27 10:16 -16.87549 145.75174 15 ft 0 kts 65°
2026-04-27 10:17 -16.87551 145.75169 15 ft 2 kts 65°
2026-04-27 10:17 -16.87559 145.75153 15 ft 2 kts 65°
2026-04-27 10:18 -16.87565 145.75138 14 ft 2 kts 52°
2026-04-27 10:18 -16.87575 145.75124 14 ft 2 kts 50°
2026-04-27 10:18 -16.87567 145.75135 12 ft 3 kts 50°
2026-04-27 10:19 -16.87562 145.75140 14 ft 0 kts 50°
2026-04-27 10:19 -16.87563 145.75139 14 ft 2 kts 50°
2026-04-27 10:19 -16.87572 145.75128 13 ft 0 kts 51°
2026-04-27 10:19 -16.87572 145.75129 13 ft 0 kts 49°
2026-04-27 10:26 -16.87571 145.75129 13 ft 1 kts 49°
2026-04-27 10:26 -16.87574 145.75125 12 ft 2 kts 35°
2026-04-27 10:26 -16.87589 145.75118 12 ft 2 kts
2026-04-27 10:27 -16.87596 145.75117 13 ft 0 kts 348°
2026-04-27 10:27 -16.87595 145.75116 13 ft 0 kts 338°
2026-04-27 10:28 -16.87552 145.75097 12 ft 10 kts 337°
2026-04-27 10:28 -16.87482 145.75065 13 ft 12 kts 336°
2026-04-27 10:28 -16.87403 145.75029 16 ft 13 kts 336°
2026-04-27 10:29 -16.87326 145.74964 13 ft 17 kts 297°
2026-04-27 10:29 -16.87250 145.74856 11 ft 21 kts 335°
2026-04-27 10:29 -16.87132 145.74801 12 ft 16 kts 336°
2026-04-27 10:29 -16.87054 145.74749 10 ft 13 kts 300°
2026-04-27 10:30 -16.87053 145.74701 9 ft 0 kts 253°
2026-04-27 10:30 -16.87059 145.74682 8 ft 6 kts 248°
2026-04-27 10:30 -16.87096 145.74625 8 ft 13 kts 217°
2026-04-27 10:30 -16.87272 145.74668 12 ft 55 kts 156°
2026-04-27 10:31 -16.87840 145.74925 14 ft 119 kts 156°
2026-04-27 10:31 -16.88754 145.75333 91 ft 159 kts 157°
2026-04-27 10:31 -16.89668 145.75917 781 ft 150 kts 129°
2026-04-27 10:31 -16.89957 145.76950 1276 ft 157 kts 85°
2026-04-27 10:32 -16.89559 145.78050 1672 ft 172 kts 54°
2026-04-27 10:32 -16.88657 145.78963 1962 ft 192 kts 39°
2026-04-27 10:32 -16.87548 145.79875 2209 ft 216 kts 38°
2026-04-27 10:32 -16.86273 145.80897 2632 ft 238 kts 37°
2026-04-27 10:33 -16.84924 145.81934 3483 ft 245 kts 37°
2026-04-27 10:33 -16.83528 145.83033 4234 ft 259 kts 37°
2026-04-27 10:33 -16.82031 145.84201 4846 ft 280 kts 37°
2026-04-27 10:33 -16.80384 145.85461 5181 ft 309 kts 36°
2026-04-27 10:34 -16.78653 145.86786 5838 ft 300 kts 36°
2026-04-27 10:34 -16.77035 145.88029 5979 ft 281 kts 36°
2026-04-27 10:34 -16.75468 145.89233 6014 ft 279 kts 36°
2026-04-27 10:34 -16.73911 145.90429 6015 ft 278 kts 36°
2026-04-27 10:35 -16.72353 145.91626 6016 ft 278 kts 36°
2026-04-27 10:35 -16.70799 145.92821 6016 ft 278 kts 36°
2026-04-27 10:35 -16.69239 145.94019 6016 ft 278 kts 36°
2026-04-27 10:35 -16.67687 145.95212 6016 ft 278 kts 36°
2026-04-27 10:36 -16.66130 145.96408 6016 ft 278 kts 36°
2026-04-27 10:36 -16.64593 145.97588 6016 ft 278 kts 36°
2026-04-27 10:36 -16.63036 145.98785 6016 ft 278 kts 37°
2026-04-27 10:36 -16.61480 145.99980 6016 ft 278 kts 36°
2026-04-27 10:37 -16.59975 146.01236 6005 ft 277 kts 48°
2026-04-27 10:37 -16.59038 146.02964 6017 ft 276 kts 76°
2026-04-27 10:37 -16.58977 146.04936 6017 ft 273 kts 104°
2026-04-27 10:37 -16.59800 146.06692 6016 ft 271 kts 132°
2026-04-27 10:38 -16.61290 146.07858 6019 ft 269 kts 153°
2026-04-27 10:38 -16.62982 146.08708 6017 ft 270 kts 156°
2026-04-27 10:38 -16.64705 146.09526 6638 ft 273 kts 156°
2026-04-27 10:38 -16.66439 146.10344 7632 ft 275 kts 156°
2026-04-27 10:39 -16.68196 146.11170 8549 ft 279 kts 156°
2026-04-27 10:39 -16.69975 146.12005 9429 ft 282 kts 156°
2026-04-27 10:39 -16.71778 146.12849 10237 ft 289 kts 156°
2026-04-27 10:39 -16.73692 146.13744 10542 ft 313 kts 156°
2026-04-27 10:40 -16.75752 146.14704 10830 ft 334 kts 156°
2026-04-27 10:40 -16.77910 146.15708 11450 ft 342 kts 156°
2026-04-27 10:40 -16.80096 146.16725 12164 ft 346 kts 156°
2026-04-27 10:40 -16.82310 146.17753 12887 ft 350 kts 156°
2026-04-27 10:41 -16.84544 146.18790 13602 ft 354 kts 156°
2026-04-27 10:41 -16.86807 146.19841 14307 ft 358 kts 156°
2026-04-27 10:41 -16.89097 146.20903 14987 ft 361 kts 156°
2026-04-27 10:41 -16.91406 146.21973 15634 ft 365 kts 156°
2026-04-27 10:42 -16.93738 146.23054 16258 ft 369 kts 156°
2026-04-27 10:42 -16.96092 146.24144 16887 ft 372 kts 156°
2026-04-27 10:42 -16.98470 146.25245 17503 ft 376 kts 156°
2026-04-27 10:42 -17.00870 146.26355 18127 ft 379 kts 156°
2026-04-27 10:43 -17.03293 146.27475 18756 ft 383 kts 156°
2026-04-27 10:43 -17.05736 146.28605 19385 ft 386 kts 156°
2026-04-27 10:43 -17.08207 146.29746 20011 ft 390 kts 156°
2026-04-27 10:43 -17.10697 146.30896 20615 ft 394 kts 156°
2026-04-27 10:44 -17.13224 146.32017 20917 ft 395 kts 162°
2026-04-27 10:44 -17.15936 146.32549 20999 ft 403 kts 179°
2026-04-27 10:44 -17.18786 146.32358 21015 ft 417 kts 186°
2026-04-27 10:44 -17.21689 146.32057 21009 ft 421 kts 186°
2026-04-27 10:45 -17.24606 146.31738 21009 ft 422 kts 186°
2026-04-27 10:45 -17.27493 146.31420 21009 ft 423 kts 186°
2026-04-27 10:45 -17.30420 146.31099 21009 ft 423 kts 186°
2026-04-27 10:45 -17.33342 146.30783 21009 ft 423 kts 186°
2026-04-27 10:46 -17.36269 146.30471 21009 ft 423 kts 186°
2026-04-27 10:46 -17.39193 146.30163 21009 ft 423 kts 186°
2026-04-27 10:46 -17.42117 146.29857 21009 ft 423 kts 186°
2026-04-27 10:46 -17.45047 146.29547 21010 ft 423 kts 186°
2026-04-27 10:47 -17.47970 146.29237 21007 ft 422 kts 186°
2026-04-27 10:47 -17.50893 146.28926 21006 ft 422 kts 186°
2026-04-27 10:47 -17.53819 146.28618 21005 ft 422 kts 186°
2026-04-27 10:47 -17.56737 146.28311 21004 ft 422 kts 186°
2026-04-27 10:48 -17.59661 146.28000 21004 ft 422 kts 186°
2026-04-27 10:48 -17.62590 146.27687 21004 ft 422 kts 186°
2026-04-27 10:48 -17.65508 146.27377 21004 ft 422 kts 186°
2026-04-27 10:48 -17.68433 146.27069 21004 ft 422 kts 186°
2026-04-27 10:49 -17.71357 146.26760 21003 ft 422 kts 186°
2026-04-27 10:49 -17.74296 146.26450 21020 ft 430 kts 186°
2026-04-27 10:49 -17.77206 146.26142 20993 ft 408 kts 186°
2026-04-27 10:49 -17.79947 146.25850 21004 ft 385 kts 186°
2026-04-27 10:50 -17.82604 146.25567 21009 ft 392 kts 186°
2026-04-27 10:50 -17.85383 146.25269 21011 ft 411 kts 186°
2026-04-27 10:50 -17.88263 146.24959 21009 ft 419 kts 186°
2026-04-27 10:50 -17.91177 146.24647 21009 ft 421 kts 186°
2026-04-27 10:51 -17.94093 146.24336 21009 ft 422 kts 186°
2026-04-27 10:51 -17.97017 146.24023 21009 ft 422 kts 186°
2026-04-27 10:51 -17.99932 146.23712 21009 ft 422 kts 186°
2026-04-27 10:51 -18.02867 146.23485 21007 ft 422 kts 180°
2026-04-27 10:52 -18.05789 146.23738 21009 ft 423 kts 170°
2026-04-27 10:52 -18.08634 146.24515 21009 ft 423 kts 161°
2026-04-27 10:52 -18.11324 146.25673 21010 ft 424 kts 158°
2026-04-27 10:52 -18.14037 146.26873 21009 ft 424 kts 158°
2026-04-27 10:53 -18.16762 146.28069 21007 ft 423 kts 158°
2026-04-27 10:53 -18.22193 146.30452 21005 ft 423 kts 158°
2026-04-27 10:53 -18.24911 146.31651 21004 ft 421 kts 158°
2026-04-27 10:54 -18.27553 146.32821 21008 ft 402 kts 158°
2026-04-27 10:54 -18.30109 146.33950 21011 ft 397 kts 158°
2026-04-27 10:54 -18.32656 146.35070 21009 ft 396 kts 158°
2026-04-27 10:54 -18.35194 146.36190 21009 ft 395 kts 158°
2026-04-27 10:55 -18.37727 146.37310 21009 ft 395 kts 158°
2026-04-27 10:55 -18.40264 146.38432 21009 ft 395 kts 158°
2026-04-27 10:55 -18.42798 146.39555 21009 ft 395 kts 158°
2026-04-27 10:55 -18.45337 146.40681 21009 ft 395 kts 158°
2026-04-27 10:56 -18.47872 146.41808 21009 ft 395 kts 158°
2026-04-27 10:56 -18.50409 146.42936 21009 ft 395 kts 158°
2026-04-27 10:56 -18.52941 146.44060 21010 ft 395 kts 158°
2026-04-27 10:56 -18.55476 146.45181 21011 ft 395 kts 158°
2026-04-27 10:57 -18.58016 146.46304 21014 ft 396 kts 158°
2026-04-27 10:57 -18.60549 146.47424 21015 ft 396 kts 158°
2026-04-27 10:57 -18.63059 146.48536 21017 ft 396 kts 158°
2026-04-27 10:57 -18.65596 146.49663 21020 ft 396 kts 158°
2026-04-27 10:58 -18.68141 146.50795 21022 ft 396 kts 158°
2026-04-27 10:58 -18.70682 146.51924 21023 ft 396 kts 158°
2026-04-27 10:58 -18.73220 146.53048 21026 ft 396 kts 158°
2026-04-27 10:58 -18.75761 146.54174 21024 ft 396 kts 158°
2026-04-27 10:59 -18.78308 146.55304 21028 ft 396 kts 158°
2026-04-27 10:59 -18.80843 146.56428 21027 ft 396 kts 158°
2026-04-27 10:59 -18.83380 146.57551 21025 ft 396 kts 158°